Wind_Speed
20 18 17 15 13 10 9 9 9 8 8 8 7 7 7 6 5 4 5 6 6 7 8 9 9 9 10 10 10 11 11 11 11 10 10 10 11 12 12 13 14 16
22 20 19 17 15 13 11 10 10 9 9 9 8 8 9 9 8 7 7 7 8 9 10 10 11 11 11 11 12 12 12 12 12 12 12 11 11 11 12 12 13 14
23 22 20 18 16 14 13 12 11 11 11 10 10 10 11 10 9 9 9 9 10 11 12 12 12 12 12 13 14 14 14 14 13 13 13 12 12 12 12 12 13 14
25 23 21 19 17 15 14 14 13 13 13 12 12 12 12 11 11 11 10 11 12 13 13 13 13 14 14 14 15 16 16 16 16 15 14 13 12 13 13 14 14 14
25 24 21 19 17 16 16 16 15 15 14 14 14 14 14 13 13 12 12 13 13 14 14 14 14 14 15 15 16 17 17 18 18 18 17 15 14 14 14 14 15 16
26 25 22 20 18 17 18 18 17 16 16 16 16 16 16 15 14 14 13 14 15 15 15 15 15 15 15 16 17 17 19 19 20 20 19 18 17 17 16 16 16 16
27 26 24 21 20 19 19 19 19 19 19 18 18 18 17 16 15 15 15 15 16 16 15 15 15 15 15 16 17 18 19 20 21 21 20 20 20 20 19 18 18 17
27 27 26 23 22 21 20 21 21 21 20 20 20 20 19 17 16 16 16 16 16 16 15 15 15 14 15 16 17 19 20 20 21 21 22 22 22 22 22 21 21 20
27 28 28 26 24 23 22 22 23 22 22 21 21 20 19 18 18 17 17 17 16 16 15 15 14 14 14 16 18 19 20 20 20 21 22 23 23 24 24 24 24 23
29 29 30 28 26 25 25 25 24 23 23 22 21 21 20 19 19 18 18 17 16 16 15 14 14 14 15 16 18 19 19 19 19 20 21 23 24 25 26 26 26 26
31 31 32 31 29 28 27 27 26 24 23 22 21 20 20 19 19 18 18 17 16 15 14 14 13 14 16 17 18 19 19 19 20 21 22 24 26 27 28 28 29 29
35 34 35 34 32 31 29 28 27 25 24 22 21 20 19 19 18 18 17 16 15 14 13 13 13 15 17 18 19 19 19 20 21 23 25 26 27 29 30 31 31 32
40 38 37 37 35 33 31 28 26 25 23 21 20 19 19 18 18 17 16 15 13 13 12 13 14 16 18 19 20 20 21 23 24 26 28 29 30 32 33 33 33 33
43 41 39 38 37 35 32 29 26 24 22 21 19 19 18 17 16 15 14 13 12 12 12 13 15 17 19 20 21 22 24 26 27 29 31 32 34 36 36 35 35 33
45 46 42 39 38 36 33 29 25 23 21 20 19 17 16 15 14 14 13 12 12 12 13 15 16 18 20 21 22 24 26 28 30 32 34 36 38 39 38 37 36 35
45 46 44 41 39 37 33 29 25 22 20 18 16 15 14 14 13 12 12 11 11 13 14 16 18 20 21 22 24 26 28 30 32 35 37 39 41 41 40 39 37 36
41 42 43 43 39 36 32 28 24 21 19 16 15 14 14 13 12 11 11 11 13 14 16 18 20 22 23 25 26 28 30 32 35 38 40 41 42 42 41 40 39 38
38 39 40 41 39 35 31 27 24 20 18 16 15 14 13 12 11 11 11 13 15 17 19 20 22 23 25 26 28 30 32 35 38 40 41 41 41 40 40 40 40 39
35 35 35 35 36 34 31 27 24 20 17 16 15 13 12 12 12 12 13 15 17 19 20 21 23 24 26 28 30 33 35 37 39 39 39 39 38 38 39 39 39 40
34 32 29 30 33 32 29 25 21 18 16 15 14 13 13 13 13 14 15 17 18 19 20 22 23 25 27 29 32 34 35 36 37 37 37 37 37 37 38 38 39 39
34 29 27 30 32 29 24 20 17 16 15 15 14 14 14 14 14 15 15 16 17 19 21 23 25 26 28 30 31 32 33 34 35 36 36 36 37 37 37 38 38 38
33 30 29 32 30 25 21 19 17 16 15 14 14 14 14 14 14 14 15 16 17 20 22 24 25 26 28 29 30 30 32 33 34 35 36 36 37 37 37 38 38 38
35 34 32 31 29 26 23 21 19 17 16 15 15 14 13 12 13 13 15 17 19 21 23 25 25 26 27 28 29 30 32 34 35 35 37 37 38 38 38 39 38 38
36 36 33 32 30 27 24 22 19 17 16 14 14 13 11 11 12 13 15 17 19 21 23 24 25 26 27 28 30 32 33 35 36 37 38 39 39 40 40 40 40 40
34 34 33 31 29 26 23 21 18 16 14 13 13 12 11 12 12 14 16 18 19 20 21 22 24 25 27 30 32 33 35 36 37 38 39 40 40 41 41 41 41 41
35 35 32 29 27 24 20 17 15 13 12 11 10 10 9 10 11 13 16 17 17 18 19 20 23 26 29 32 35 36 36 36 37 39 40 41 41 41 42 42 42 42
Wind_Direction
232 234 236 237 238 237 236 239 242 248 252 254 258 264 267 274 285 296 308 318 326 327 324 324 328 331 331 331 331 331 332 336 337 332 323 312 302 293 288 284 281 277
232 234 235 236 237 236 235 239 245 250 253 256 259 263 266 273 280 288 297 307 313 313 313 317 320 322 323 323 324 327 329 331 332 329 325 320 311 300 291 285 282 279
233 235 235 236 238 238 237 239 244 248 251 252 253 256 263 268 272 279 288 296 302 304 308 312 314 315 317 319 321 324 328 330 329 326 323 321 316 309 301 291 283 279
233 235 236 237 239 239 239 239 240 244 246 247 249 252 256 259 264 270 278 286 292 297 302 304 305 308 312 314 317 322 324 326 326 324 321 320 316 311 307 299 291 283
235 237 237 237 239 239 239 238 237 240 244 245 247 249 251 254 257 263 271 279 286 291 293 295 299 303 306 309 314 318 320 321 321 319 318 318 318 314 310 304 298 292
236 238 237 236 238 239 239 238 237 239 243 245 246 246 248 250 252 257 264 272 279 284 286 290 294 297 302 309 314 317 318 318 317 316 314 315 316 316 315 310 302 296
236 236 236 235 235 236 238 238 237 239 242 245 245 244 245 247 249 253 259 265 272 277 282 285 288 295 303 310 314 316 317 317 316 314 312 312 313 314 315 314 309 301
238 237 235 234 233 233 234 235 236 237 239 241 241 242 243 244 247 251 255 262 268 273 277 281 286 296 305 310 314 316 317 317 316 314 313 314 314 314 314 313 310 306
242 239 237 234 232 231 231 231 233 234 236 237 238 238 240 242 244 249 254 259 265 270 274 279 287 297 305 310 313 315 315 314 314 313 314 314 314 314 314 312 310 306
244 241 238 235 232 230 228 229 231 233 234 234 234 234 236 238 242 246 251 256 261 267 273 280 290 300 307 312 312 311 310 309 309 310 310 310 309 309 309 309 307 304
246 243 239 235 232 229 227 229 231 232 232 233 232 232 234 237 241 245 247 251 257 264 272 283 294 304 308 309 308 306 306 307 307 307 305 304 303 303 303 302 301 299
248 246 241 236 233 230 228 229 231 232 231 231 230 231 233 237 239 241 243 248 255 264 275 288 299 305 306 305 305 305 306 306 305 303 301 301 301 301 300 299 298 296
250 249 245 240 236 234 231 230 231 231 230 228 228 229 231 233 234 236 241 248 257 268 280 292 300 304 305 306 307 307 306 304 302 300 300 300 301 301 301 299 298 297
252 251 249 244 240 237 234 232 231 230 228 225 224 224 224 226 229 233 241 250 260 272 285 294 300 304 306 306 305 304 301 299 299 299 299 300 301 301 300 300 299 298
253 250 249 244 240 237 233 231 230 227 224 221 218 218 220 222 226 234 243 253 264 276 286 292 296 300 302 300 298 297 296 296 296 297 298 299 300 300 299 299 298 297
252 249 248 244 238 234 231 227 225 222 217 214 214 215 217 221 228 238 248 258 270 278 282 285 289 294 295 293 293 293 293 293 294 295 297 298 299 300 299 298 297 296
259 253 249 246 239 231 227 222 219 216 211 208 212 215 217 223 232 242 253 263 269 271 273 278 285 291 292 291 291 290 290 291 293 295 296 298 298 299 298 298 297 296
266 257 248 246 241 230 223 219 215 209 204 203 210 215 220 227 235 243 252 258 261 265 271 280 287 290 290 290 289 289 290 292 294 295 296 296 297 297 297 297 296 295
265 258 246 242 240 230 220 214 209 202 198 201 208 215 223 230 237 243 249 254 260 268 276 282 286 288 288 289 290 292 294 296 296 297 297 296 296 295 295 294 294 294
262 256 240 235 236 229 215 205 199 194 192 198 206 215 225 233 239 245 250 258 266 273 279 282 285 286 289 292 295 297 298 298 298 298 297 296 295 294 294 293 292 292
256 246 231 227 226 216 202 193 189 189 191 198 208 219 228 236 242 249 255 264 271 277 280 283 286 289 293 296 298 299 299 298 298 297 296 295 294 293 293 292 291 290
249 234 225 223 214 198 189 187 186 188 196 205 216 225 231 238 245 253 261 269 274 279 282 286 290 294 297 299 300 302 302 301 299 298 296 295 294 293 292 291 290 288
241 228 219 210 196 186 186 188 186 191 202 212 221 226 230 239 250 261 269 274 278 283 288 293 296 298 300 302 305 308 308 307 305 303 300 299 298 297 295 293 290 288
232 220 206 192 182 181 184 186 188 194 201 208 216 223 232 247 262 270 276 282 288 293 297 299 299 301 303 307 312 315 315 313 311 308 306 304 303 301 298 296 293 290
217 202 188 177 173 176 181 183 186 191 199 209 220 232 244 255 267 275 282 290 297 300 302 302 302 306 310 315 320 321 320 318 316 313 311 309 307 304 301 298 295 293
196 188 181 174 171 174 177 180 187 196 208 221 233 246 254 263 274 282 289 297 303 305 306 308 311 315 319 323 325 325 324 322 319 316 314 312 309 305 302 299 296 294
Height
1515 1516 1517 1519 1520 1520 1521 1522 1522 1523 1523 1523 1524 1524 1524 1524 1524 1524 1525 1525 1524 1525 1524 1524 1524 1523 1523 1522 1522 1521 1520 1520 1519 1518 1518 1517 1516 1516 1516 1516 1516 1516
1513 1514 1516 1517 1518 1519 1519 1520 1521 1521 1522 1522 1523 1523 1523 1523 1523 1523 1523 1523 1523 1523 1523 1523 1523 1522 1522 1521 1521 1520 1519 1519 1518 1517 1516 1516 1515 1514 1514 1514 1514 1514
1511 1512 1513 1515 1516 1517 1518 1519 1519 1520 1521 1521 1521 1522 1522 1522 1522 1522 1522 1522 1522 1522 1521 1521 1521 1520 1520 1519 1519 1518 1518 1517 1517 1516 1515 1514 1514 1513 1512 1512 1512 1512
1509 1510 1511 1513 1514 1515 1516 1517 1517 1518 1519 1519 1520 1520 1520 1520 1521 1521 1521 1521 1521 1520 1520 1519 1519 1519 1518 1518 1517 1516 1516 1515 1514 1514 1513 1513 1512 1512 1511 1510 1510 1510
1507 1508 1509 1511 1512 1513 1514 1515 1515 1516 1517 1517 1518 1519 1519 1519 1520 1520 1520 1520 1519 1519 1519 1518 1517 1517 1517 1516 1515 1515 1514 1513 1513 1512 1511 1511 1510 1510 1509 1509 1508 1507
1504 1505 1507 1508 1509 1510 1511 1512 1513 1514 1514 1515 1516 1516 1517 1517 1518 1518 1518 1518 1518 1518 1517 1517 1516 1515 1515 1514 1513 1513 1512 1511 1511 1510 1509 1508 1508 1508 1507 1507 1506 1505
1501 1502 1504 1505 1507 1508 1508 1509 1510 1511 1512 1513 1513 1514 1515 1515 1516 1516 1517 1517 1516 1516 1516 1515 1515 1514 1513 1512 1511 1511 1510 1509 1508 1508 1507 1506 1506 1505 1505 1504 1504 1503
1498 1500 1501 1502 1503 1504 1505 1506 1507 1508 1509 1510 1510 1511 1512 1513 1514 1514 1515 1515 1514 1514 1514 1514 1513 1512 1511 1510 1510 1509 1508 1507 1506 1505 1505 1504 1503 1503 1502 1502 1501 1501
1496 1497 1498 1499 1500 1500 1501 1502 1503 1505 1506 1507 1507 1508 1509 1510 1511 1512 1512 1512 1512 1512 1512 1512 1511 1510 1509 1509 1508 1507 1506 1506 1505 1504 1503 1502 1501 1500 1500 1499 1499 1498
1494 1494 1495 1496 1496 1497 1497 1498 1500 1501 1502 1503 1505 1505 1506 1508 1508 1509 1509 1509 1510 1510 1509 1509 1509 1508 1508 1507 1506 1506 1505 1504 1503 1502 1501 1500 1499 1499 1498 1497 1496 1496
1491 1491 1492 1492 1492 1493 1494 1495 1496 1498 1499 1500 1502 1503 1504 1505 1506 1506 1506 1507 1507 1507 1507 1507 1506 1506 1506 1505 1505 1504 1503 1502 1501 1500 1499 1499 1498 1497 1496 1495 1494 1493
1487 1487 1488 1488 1489 1490 1491 1492 1494 1495 1496 1497 1499 1500 1501 1502 1503 1503 1504 1504 1505 1505 1505 1505 1504 1504 1504 1503 1503 1502 1501 1500 1499 1498 1497 1496 1495 1494 1493 1492 1491 1490
1483 1483 1484 1485 1486 1488 1489 1490 1491 1492 1493 1495 1496 1497 1499 1500 1500 1501 1501 1502 1502 1502 1502 1502 1502 1502 1502 1501 1500 1499 1498 1497 1496 1495 1494 1493 1491 1490 1489 1489 1488 1487
1479 1480 1480 1482 1484 1485 1487 1488 1489 1490 1491 1492 1494 1495 1496 1497 1497 1498 1499 1499 1500 1500 1500 1500 1500 1500 1499 1499 1498 1497 1496 1494 1493 1492 1490 1489 1488 1486 1485 1484 1483 1483
1474 1475 1476 1478 1480 1482 1484 1486 1487 1488 1489 1491 1492 1493 1493 1494 1495 1495 1496 1497 1497 1497 1498 1498 1498 1497 1497 1496 1495 1494 1492 1491 1490 1489 1487 1485 1484 1482 1481 1480 1479 1478
1471 1472 1473 1474 1476 1478 1481 1483 1484 1486 1487 1489 1490 1491 1491 1491 1492 1493 1494 1494 1495 1495 1495 1495 1495 1494 1493 1493 1492 1490 1489 1488 1486 1485 1483 1482 1479 1478 1476 1475 1474 1474
1469 1471 1473 1472 1472 1475 1477 1479 1481 1483 1484 1487 1488 1489 1489 1489 1490 1491 1491 1492 1492 1492 1492 1492 1492 1491 1490 1489 1489 1487 1486 1484 1483 1481 1479 1477 1475 1473 1472 1470 1469 1468
1466 1467 1470 1471 1472 1473 1474 1476 1478 1479 1481 1484 1486 1487 1488 1487 1488 1488 1488 1489 1489 1489 1490 1489 1489 1488 1487 1486 1485 1484 1483 1481 1479 1477 1475 1473 1471 1469 1468 1466 1464 1463
1462 1463 1465 1469 1471 1472 1472 1473 1474 1475 1478 1481 1483 1485 1485 1485 1485 1485 1485 1486 1486 1487 1487 1486 1486 1485 1484 1483 1482 1480 1479 1477 1474 1472 1470 1468 1467 1465 1464 1462 1460 1459
1459 1460 1461 1464 1468 1469 1470 1471 1472 1474 1475 1478 1481 1482 1483 1483 1482 1482 1482 1483 1484 1484 1484 1483 1483 1482 1481 1480 1478 1476 1475 1472 1470 1468 1465 1464 1462 1461 1459 1458 1457 1455
1456 1457 1459 1460 1463 1468 1471 1471 1472 1473 1475 1476 1479 1480 1480 1480 1480 1480 1480 1480 1481 1481 1480 1480 1479 1479 1477 1476 1474 1473 1471 1469 1466 1463 1461 1459 1457 1456 1455 1453 1452 1451
1452 1454 1455 1457 1460 1466 1470 1470 1470 1472 1474 1475 1477 1478 1477 1477 1477 1478 1478 1478 1477 1477 1476 1476 1476 1475 1474 1472 1471 1469 1467 1464 1462 1458 1456 1453 1452 1451 1450 1449 1447 1446
1449 1450 1452 1455 1458 1462 1465 1466 1467 1469 1471 1473 1475 1476 1475 1475 1475 1475 1475 1475 1475 1474 1473 1472 1472 1471 1470 1469 1468 1466 1463 1460 1456 1453 1450 1448 1446 1445 1444 1443 1442 1440
1446 1447 1448 1451 1454 1458 1461 1464 1465 1467 1469 1471 1473 1472 1472 1472 1473 1473 1473 1472 1472 1471 1469 1468 1468 1468 1467 1465 1464 1462 1459 1455 1451 1448 1444 1442 1440 1439 1437 1436 1435 1434
1444 1446 1447 1449 1452 1456 1460 1463 1465 1467 1468 1470 1470 1469 1468 1468 1469 1470 1470 1470 1469 1468 1467 1465 1465 1464 1464 1462 1460 1458 1454 1451 1447 1443 1439 1436 1434 1432 1430 1429 1428 1427
1442 1443 1445 1448 1451 1455 1458 1461 1464 1465 1467 1468 1468 1467 1466 1466 1466 1467 1468 1468 1467 1465 1464 1463 1462 1461 1460 1459 1456 1454 1450 1447 1442 1438 1434 1431 1428 1426 1424 1422 1422 1421